Flag for Bolivia Weather past 2 weeks in Santa Cruz, Bolivia

Now
57 °F

Overcast.


Feels Like: 53 °F
Forecast: 57 / 64 °F
Wind: 17 mph from South

Location: Viru-Viru

Current Time: Jul 7, 2015 at 5:09:37 AM

Latest Report: Jul 7, 2015 at 4:00 AM


Visibility: N/A

Pressure: 29.95 "Hg

Humidity: 94%

Dew point: 55 °F

Location of Santa CruzLocation

Historic Weather in Santa Cruz — Graph

°F

Santa Cruz temperature yesterday

Maximum temperature yesterday: 68 °F (at 2:00 PM)
Minimum temperature yesterday: 59 °F (at 12:00 AM)
Average temperature yesterday: 63 °F

Past Weeks' High & Low Weather Summary

 TemperatureHumidityPressure
High84 °F (Jun 22, 1:00 PM)100% (Jun 22, 4:00 AM)30.27 "Hg (Jun 22, 4:00 AM)
Low54 °F (Jun 24, 8:00 PM)43% (Jun 22, 3:00 PM)29.77 "Hg (Jun 29, 4:00 PM)
Average67 °F88%30.01 "Hg
* Reported Jun 22 4:00 AM — Jul 7 4:00 AM, Santa Cruz, Weather by CustomWeather, © 2015

Note: Actual official high and low records may vary slightly from our data, if they occured in-between our weather recording intervals... More about our weather records

Advertising

Santa Cruz weather history for previous 24 hours

 ConditionsComfort  
Time TempWeatherWind HumidityBarometerVisibility
4:00 AM
Tue, Jul 7
57 °FOvercast.17 mph94%29.95 "HgN/A
3:00 AM57 °FOvercast.16 mph94%29.95 "HgN/A
2:00 AM59 °FMostly cloudy.12 mph94%29.95 "HgN/A
1:00 AM59 °FDrizzle. Mostly cloudy.12 mph94%29.98 "Hg4 mi
12:00 AM59 °FDrizzle. Mostly cloudy.9 mph100%29.98 "Hg2 mi
11:00 PM
Mon, Jul 6
64 °FDrizzle. Mostly cloudy.2 mph100%29.98 "Hg2 mi
10:00 PM64 °FMostly cloudy.2 mph100%29.95 "HgN/A
9:00 PM64 °FMostly cloudy.6 mph100%29.92 "HgN/A
8:00 PM64 °FMostly cloudy.13 mph94%29.89 "HgN/A
7:00 PM64 °FMostly cloudy.12 mph94%29.89 "HgN/A
6:00 PM64 °FMostly cloudy.15 mph94%29.83 "HgN/A
5:00 PM66 °FMostly cloudy.14 mph88%29.83 "HgN/A
4:00 PM66 °FBroken clouds.14 mph88%29.83 "HgN/A
3:00 PM68 °FMostly cloudy.16 mph78%29.83 "HgN/A
2:00 PM68 °FCloudy.14 mph83%29.86 "HgN/A
1:00 PM66 °FCloudy.18 mph83%29.86 "HgN/A
12:00 PM66 °FBroken clouds.18 mph83%29.89 "HgN/A
11:00 AM63 °FMostly cloudy.23 mph88%29.95 "HgN/A
10:00 AM61 °FMostly cloudy.17 mph94%29.95 "HgN/A
9:00 AM61 °FMostly cloudy.14 mph94%29.92 "HgN/A
8:00 AM59 °FMostly cloudy.14 mph94%29.89 "HgN/A
7:00 AM59 °FMostly cloudy.12 mph94%29.86 "HgN/A
6:00 AM59 °FOvercast.15 mph100%29.83 "HgN/A
5:00 AM59 °FOvercast.18 mph100%29.80 "HgN/A
Weather by CustomWeather, © 2015

See weather overviewHow to use our weather pages